Location: Arrakis Observatory
(44.1122°N, 95.7153°W)
Time: 17:16:51
(UTC-05:00)

Amateur Radio Satellites - All Passes

Search period start: 28 July 2016 16:46
Search period end: 29 July 2016 16:46
Location: Arrakis Observatory, 44.1122°N, 95.7153°W

Satellite Date Start Highest point End Downlink Frequencies (MHz)
Time Altitude Azimuth
ITUPSAT 1 28 Jul 16:49:33 16:53:49 33° 293° (WNW) 16:58:02 437.325
GONETS M04 28 Jul 16:51:03 16:59:36 62° 283° (WNW) 17:08:17
MOZHAYETS 4 28 Jul 16:52:33 16:56:54 42° 98° (E) 17:01:13
NOAA 15 28 Jul 17:00:37 17:03:19 14° 57° (ENE) 17:06:01 137.62
RS-15 28 Jul 17:06:46 17:18:52 65° 245° (WSW) 17:30:48 29.354- 29.394
NOAA 18 28 Jul 17:32:49 17:37:00 22° 60° (ENE) 17:41:12 137.9125
BRITE-PL 28 Jul 17:37:34 17:40:58 25° 67° (ENE) 17:44:27 437.365/2234.400
AO-7 28 Jul 17:42:32 17:49:09 25° 267° (W) 17:55:49 29.400- 29.500
KKS-1 28 Jul 17:43:40 17:48:07 64° 287° (WNW) 17:52:33 437.445
SO-50 28 Jul 17:43:56 17:48:25 49° 241° (WSW) 17:52:44 436.795
SWISSCUBE 28 Jul 17:44:40 17:45:32 10° 304° (WNW) 17:46:24 437.505
Cubesat XI-IV 28 Jul 17:59:35 18:04:22 34° 66° (ENE) 18:09:11 437.490
PHONESAT 2.4 28 Jul 18:02:39 18:05:23 30° 166° (SSE) 18:08:08 2401.200-2431.200
HORYU 2 28 Jul 18:07:20 18:11:28 36° 262° (W) 18:15:40 437.375
CUBESAT XI-V 28 Jul 18:16:05 18:20:25 39° 97° (E) 18:24:45 437.345
DOVE 4 28 Jul 18:17:35 18:20:12 16° 61° (ENE) 18:22:53 437.250
STARS 28 Jul 18:18:06 18:22:28 55° 288° (WNW) 18:26:48 437.465
CUTE-I 28 Jul 18:22:13 18:27:25 53° 70° (ENE) 18:32:39 437.470
Cosmos 2499 28 Jul 18:25:08 18:32:02 25° 296° (WNW) 18:38:48 435.465 / 435.565
MOZHAYETS 4 28 Jul 18:30:19 18:33:49 22° 295° (WNW) 18:37:16
GOMX 1 28 Jul 18:30:59 18:34:55 41° 70° (ENE) 18:39:04 467.674
NOAA 15 28 Jul 18:37:06 18:42:21 88° 256° (WSW) 18:47:38 137.62
GONETS M04 28 Jul 18:54:45 18:58:36 13° 307° (NW) 19:02:30
LilacSat-2 28 Jul 18:55:24 18:59:17 78° 259° (WSW) 19:03:12 437.200
YUBILEINY 28 Jul 19:01:19 19:03:56 11° 50° (NE) 19:06:33 435.215
CANX-2 28 Jul 19:08:35 19:10:38 13° 62° (ENE) 19:12:43 2200.000
NOAA 18 28 Jul 19:11:46 19:17:13 59° 258° (WSW) 19:22:44 137.9125
BEESAT 3 28 Jul 19:13:31 19:17:26 86° 309° (NW) 19:21:24 437.485
BRITE-PL 28 Jul 19:15:52 19:19:25 28° 265° (W) 19:23:03 437.365/2234.400
CUTE 1.7 + AOD 2 28 Jul 19:21:06 19:23:39 16° 63° (ENE) 19:26:13 437.475
PCSat 28 Jul 19:22:41 19:27:44 42° 113° (ESE) 19:32:49 145.827
RS-15 28 Jul 19:22:54 19:28:43 15° 267° (W) 19:34:31 29.354- 29.394
BEESAT 2 28 Jul 19:22:56 19:26:50 64° 121° (ESE) 19:30:48 435.950
HO-68 28 Jul 19:27:42 19:34:11 39° 62° (ENE) 19:40:43 435.675
PHONESAT 2.4 28 Jul 19:38:39 19:41:35 41° 182° (S) 19:44:31 2401.200-2431.200
Cubesat XI-IV 28 Jul 19:39:31 19:44:23 35° 263° (W) 19:49:18 437.490
CINEMA 3 28 Jul 19:52:28 19:56:45 41° 70° (ENE) 20:01:16 145.822/145.860
DOVE 4 28 Jul 19:53:06 19:57:21 59° 260° (W) 20:01:54 437.250
CUBESAT XI-V 28 Jul 19:53:56 19:57:35 23° 294° (WNW) 20:01:13 437.345
SEEDS 28 Jul 19:56:08 19:59:36 25° 68° (ENE) 20:03:04 437.485
O/OREOS (USA 219) 28 Jul 19:56:31 19:58:40 13° 98° (E) 20:00:49 437.305
CUTE-I 28 Jul 20:03:40 20:07:46 22° 267° (W) 20:11:53 437.470
COMPASS 1 28 Jul 20:05:02 20:08:16 22° 67° (ENE) 20:11:31 437.405
GOMX 1 28 Jul 20:10:24 20:13:18 18° 269° (W) 20:16:18 467.674
FUNcube-1 28 Jul 20:20:29 20:22:10 12° 59° (ENE) 20:23:51 145.935
NOAA 15 28 Jul 20:21:17 20:22:52 11° 273° (W) 20:24:27 137.62
ZACube-1 28 Jul 20:21:52 20:24:00 13° 60° (ENE) 20:26:08 437.345
UWE-3 28 Jul 20:23:42 20:27:03 20° 64° (ENE) 20:30:28 435.000/436.395/437.385
STRAND 1 28 Jul 20:24:46 20:29:44 48° 100° (E) 20:34:38 437.568
Cosmos 2491 28 Jul 20:28:00 20:32:49 16° 75° (ENE) 20:37:37 435.465 / 435.565
AAUSAT CUBESAT 2 28 Jul 20:31:05 20:34:48 33° 69° (ENE) 20:38:31 437.432
CANX-2 28 Jul 20:41:43 20:45:58 66° 259° (W) 20:50:14 2200.000
CUBEBUG 2 28 Jul 20:48:05 20:52:31 48° 71° (ENE) 20:57:05 437.445
BEESAT 3 28 Jul 20:53:46 20:55:43 13° 324° (NW) 20:57:43 437.485
YUBILEINY 28 Jul 20:54:36 21:03:15 54° 75° (ENE) 21:11:47 435.215
CUTE 1.7 + AOD 2 28 Jul 20:54:54 20:59:05 54° 260° (W) 21:03:17 437.475
Oscar 11 28 Jul 20:58:17 21:01:59 28° 68° (ENE) 21:05:42 145.826/435.025
BEESAT 2 28 Jul 21:02:22 21:05:04 17° 320° (NW) 21:07:47 435.950
PCSat 28 Jul 21:06:19 21:11:13 34° 312° (NW) 21:16:10 145.827
HO-68 28 Jul 21:14:56 21:21:46 46° 261° (W) 21:28:41 435.675
PHONESAT 2.4 28 Jul 21:15:13 21:17:43 23° 199° (SSW) 21:20:13 2401.200-2431.200
HUMSAT D 28 Jul 21:21:54 21:23:29 12° 60° (ENE) 21:25:03 437.325/437.525
CINEMA 3 28 Jul 21:30:33 21:34:05 22° 268° (W) 21:37:46 145.822/145.860
SEEDS 28 Jul 21:31:27 21:35:12 30° 264° (W) 21:38:56 437.485
O/OREOS (USA 219) 28 Jul 21:33:04 21:37:30 63° 296° (WNW) 21:41:58 437.305
Cosmos 2504 28 Jul 21:33:25 21:40:34 32° 67° (ENE) 21:47:14 435.465 / 435.565
AIST 2 28 Jul 21:37:49 21:41:55 81° 122° (ESE) 21:46:05 435.215
AO-85 28 Jul 21:39:03 21:42:36 22° 39° (NE) 21:45:56 145.980
COMPASS 1 28 Jul 21:39:50 21:43:39 34° 263° (W) 21:47:28 437.405
M-CUBED/EXP-1 PRIME 28 Jul 21:47:08 21:50:48 43° 65° (ENE) 21:54:47 437.505
FUNcube-1 28 Jul 21:53:09 21:57:42 86° 258° (WSW) 22:02:19 145.935
ISS 28 Jul 21:54:08 21:57:23 74° 146° (SE) 22:00:38 145.825
ZACube-1 28 Jul 21:55:05 21:59:38 78° 258° (WSW) 22:04:16 437.345
UWE-3 28 Jul 21:58:43 22:03:09 48° 261° (W) 22:07:42 435.000/436.395/437.385
PRISM 28 Jul 22:01:24 22:05:29 64° 101° (E) 22:09:33 437.425
STRAND 1 28 Jul 22:04:37 22:08:35 23° 297° (WNW) 22:12:33 437.568
AAUSAT CUBESAT 2 28 Jul 22:07:04 22:10:20 22° 266° (W) 22:13:37 437.432
AUBIESAT-1 28 Jul 22:11:28 22:15:20 66° 68° (ENE) 22:19:31 437.475
DELFI C3 28 Jul 22:13:48 22:17:46 79° 77° (ENE) 22:21:45 145.870
Cosmos 2491 28 Jul 22:19:28 22:28:09 80° 95° (E) 22:36:54 435.465 / 435.565
CUBEBUG 2 28 Jul 22:26:05 22:29:24 19° 269° (W) 22:32:47 437.445
ESTCUBE 1 28 Jul 22:27:09 22:28:36 11° 59° (ENE) 22:30:03 437.505/2401.250
Oscar 11 28 Jul 22:34:16 22:38:03 29° 265° (W) 22:41:51 145.826/435.025
ANTELSAT 28 Jul 22:43:12 22:46:19 18° 91° (E) 22:49:21 437.575/2403.000
YUBILEINY 28 Jul 22:51:55 22:59:42 36° 276° (W) 23:07:26 435.215
HUMSAT D 28 Jul 22:54:10 22:58:28 78° 257° (WSW) 23:02:49 437.325/437.525
50 SAT 28 Jul 23:08:47 23:10:45 14° 64° (ENE) 23:12:43 437.505
DX 1 28 Jul 23:13:21 23:15:43 15° 61° (ENE) 23:18:06 434.975-435.025
AIST 2 28 Jul 23:18:23 23:20:57 16° 323° (NW) 23:23:32 435.215
AISAT 28 Jul 23:18:52 23:22:18 23° 65° (ENE) 23:25:45 437.250
AO-85 28 Jul 23:19:06 23:23:25 53° 241° (WSW) 23:27:21 145.980
M-CUBED/EXP-1 PRIME 28 Jul 23:23:04 23:25:37 17° 264° (W) 23:28:18 437.505
TIGRISAT 28 Jul 23:23:24 23:27:49 42° 98° (E) 23:32:06 435.000
UKube-1 28 Jul 23:23:30 23:25:54 15° 61° (ENE) 23:28:16 .
Cosmos 2504 28 Jul 23:26:30 23:34:24 56° 270° (W) 23:41:43 435.465 / 435.565
ISS 28 Jul 23:31:12 23:34:04 27° 345° (NNW) 23:36:56 145.825
AIST 1 28 Jul 23:35:38 23:36:49 11° 65° (ENE) 23:37:59
PRISM 28 Jul 23:38:25 23:40:18 13° 299° (WNW) 23:42:10 437.425
UNISAT 6 28 Jul 23:40:16 23:44:55 67° 102° (ESE) 23:49:24 437.425
QB50P2 28 Jul 23:44:34 23:46:21 12° 89° (E) 23:48:06 145.880/145.840
POLYITAN 1 28 Jul 23:47:09 23:49:00 12° 89° (E) 23:50:51 437.675
AUBIESAT-1 28 Jul 23:49:09 23:50:21 11° 267° (W) 23:51:34 437.475
SPROUT 28 Jul 23:52:05 23:55:23 22° 66° (ENE) 23:58:43 437.525
ESTCUBE 1 29 Jul 00:00:13 00:04:43 86° 256° (WSW) 00:09:14 437.505/2401.250
CUBEBUG 1 29 Jul 00:05:22 00:09:39 72° 75° (ENE) 00:13:59 437.445
VELOX 1 29 Jul 00:09:02 00:13:22 70° 74° (ENE) 00:17:46 145.980
ANTELSAT 29 Jul 00:18:49 00:23:19 50° 289° (WNW) 00:27:42 437.575/2403.000
Cosmos 2491 29 Jul 00:19:20 00:26:03 24° 298° (WNW) 00:32:49 435.465 / 435.565
NANOSAT C BR1 29 Jul 00:26:56 00:30:45 31° 96° (E) 00:34:33 145.865
DUCHIFAT 1 29 Jul 00:30:16 00:34:06 31° 96° (E) 00:37:54 145.980
BUGSAT 1 29 Jul 00:37:41 00:40:34 18° 92° (E) 00:43:26 437.445
50 SAT 29 Jul 00:40:31 00:44:01 43° 261° (W) 00:47:33 437.505
TISAT 1 29 Jul 00:41:03 00:43:58 19° 64° (ENE) 00:46:54 437.305
DX 1 29 Jul 00:47:08 00:51:25 62° 259° (WSW) 00:55:44 434.975-435.025
QB50P1 29 Jul 00:50:11 00:54:27 59° 101° (E) 00:58:40 145.935-145.965
AISAT 29 Jul 00:54:30 00:58:34 37° 262° (W) 01:02:41 437.250
POPSAT HIP 1 29 Jul 00:56:49 01:01:07 69° 101° (E) 01:05:22 437.405
UKube-1 29 Jul 00:57:12 01:01:27 61° 259° (W) 01:05:44 .
TIGRISAT 29 Jul 01:00:39 01:04:13 22° 296° (WNW) 01:07:42 435.000
GONETS M04 29 Jul 01:04:07 01:09:24 17° 56° (ENE) 01:14:41
ISS 29 Jul 01:08:35 01:11:12 22° 5° (N) 01:13:49 145.825
AIST 1 29 Jul 01:10:37 01:14:59 76° 263° (W) 01:19:21
QB50P2 29 Jul 01:18:18 01:22:35 64° 285° (WNW) 01:26:48 145.880/145.840
UNISAT 6 29 Jul 01:18:27 01:21:03 15° 299° (WNW) 01:23:37 437.425
POLYITAN 1 29 Jul 01:20:57 01:25:14 63° 286° (WNW) 01:29:27 437.675
SPROUT 29 Jul 01:27:10 01:31:07 36° 263° (W) 01:35:07 437.525
Oscar 19 29 Jul 01:28:16 01:30:03 12° 88° (E) 01:31:49 437.125/150
JAS-2 29 Jul 01:28:19 01:33:26 44° 99° (E) 01:38:57 435.910
SWISSCUBE 29 Jul 01:35:43 01:38:56 18° 62° (ENE) 01:42:10 437.505
CUBEBUG 1 29 Jul 01:45:16 01:46:27 11° 272° (W) 01:47:37 437.445
VELOX 1 29 Jul 01:48:43 01:50:19 12° 271° (W) 01:51:56 145.980
BEESAT 3 29 Jul 01:52:59 01:55:04 14° 36° (NE) 01:57:08 437.485
BEESAT 29 Jul 01:56:04 01:59:56 25° 65° (ENE) 02:03:49 436.000
NANOSAT C BR1 29 Jul 02:02:51 02:06:22 25° 293° (WNW) 02:09:52 145.865
BEESAT 2 29 Jul 02:03:44 02:04:51 11° 33° (NNE) 02:05:59 435.950
DUCHIFAT 1 29 Jul 02:06:10 02:09:40 25° 293° (WNW) 02:13:08 145.980
BUGSAT 1 29 Jul 02:12:05 02:16:09 44° 289° (WNW) 02:20:11 437.445
TISAT 1 29 Jul 02:15:17 02:19:18 43° 261° (W) 02:23:21 437.305
ITUPSAT 1 29 Jul 02:19:47 02:24:15 40° 69° (ENE) 02:28:44 437.325
Cosmos 2499 29 Jul 02:19:59 02:26:47 31° 67° (ENE) 02:33:07 435.465 / 435.565
PCSat 29 Jul 02:27:10 02:29:13 12° 30° (NNE) 02:31:14 145.827
QB50P1 29 Jul 02:27:21 02:29:45 15° 298° (WNW) 02:32:08 145.935-145.965
POPSAT HIP 1 29 Jul 02:34:21 02:36:20 13° 299° (WNW) 02:38:19 437.405
ISS 29 Jul 02:44:59 02:48:10 48° 25° (NNE) 02:51:20 145.825
GONETS M04 29 Jul 02:59:08 03:07:59 74° 80° (E) 03:16:49
Gurwin Techsat 1B 29 Jul 03:01:47 03:06:47 40° 98° (E) 03:11:45 435.225
Oscar 19 29 Jul 03:04:51 03:10:03 89° 287° (WNW) 03:15:15 437.125/150
ITAMSAT 1 29 Jul 03:06:08 03:08:53 14° 89° (E) 03:11:37 435.822/435.867
KKS-1 29 Jul 03:08:27 03:11:09 16° 61° (ENE) 03:13:52 437.445
SWISSCUBE 29 Jul 03:11:35 03:16:18 58° 259° (W) 03:21:02 437.505
JAS-2 29 Jul 03:14:02 03:18:22 26° 295° (WNW) 03:22:58 435.910
BEESAT 3 29 Jul 03:29:21 03:33:21 88° 56° (ENE) 03:37:18 437.485
BEESAT 29 Jul 03:33:03 03:37:31 39° 262° (W) 03:42:02 436.000
BEESAT 2 29 Jul 03:39:32 03:43:31 61° 52° (NE) 03:47:28 435.950
STARS 29 Jul 03:41:18 03:44:13 18° 62° (ENE) 03:47:09 437.465
AO-7 29 Jul 03:48:31 03:54:33 21° 91° (E) 04:00:32 29.400- 29.500
MOZHAYETS 4 29 Jul 03:55:33 04:00:00 47° 71° (ENE) 04:04:26
ITUPSAT 1 29 Jul 03:58:21 04:02:13 24° 266° (W) 04:06:06 437.325
PCSat 29 Jul 04:08:45 04:14:00 47° 52° (NE) 04:19:13 145.827
Cosmos 2499 29 Jul 04:12:47 04:20:21 55° 269° (W) 04:27:23 435.465 / 435.565
AIST 2 29 Jul 04:20:33 04:22:49 14° 36° (NE) 04:25:04 435.215
ISS 29 Jul 04:21:41 04:24:28 26° 222° (SW) 04:27:14 145.825
CUSAT 1 29 Jul 04:29:36 04:33:27 69° 280° (W) 04:36:31 437.405
Gurwin Techsat 1B 29 Jul 04:42:02 04:46:34 29° 295° (WNW) 04:51:05 435.225
KKS-1 29 Jul 04:42:53 04:47:15 58° 259° (W) 04:51:41 437.445
ITAMSAT 1 29 Jul 04:43:43 04:48:56 75° 286° (WNW) 04:54:05 435.822/435.867
Oscar 19 29 Jul 04:46:10 04:48:37 14° 303° (WNW) 04:51:04 437.125/150
GONETS M04 29 Jul 04:57:11 05:03:54 25° 280° (W) 05:10:39
DANDE 29 Jul 05:10:31 05:15:50 77° 281° (W) 05:19:47 436.750
STARS 29 Jul 05:15:54 05:20:11 51° 260° (W) 05:24:31 437.465
BEESAT 2 29 Jul 05:18:53 05:20:52 13° 250° (WSW) 05:22:50 435.950
CUBESAT XI-V 29 Jul 05:20:39 05:25:02 45° 71° (ENE) 05:29:25 437.345
RS-15 29 Jul 05:24:22 05:31:30 19° 96° (E) 05:38:48 29.354- 29.394
MOZHAYETS 4 29 Jul 05:34:08 05:37:25 19° 268° (W) 05:40:41
AO-7 29 Jul 05:39:52 05:48:16 85° 292° (WNW) 05:56:36 29.400- 29.500
PCSat 29 Jul 05:52:37 05:57:09 28° 251° (WSW) 06:01:39 145.827
HORYU 2 29 Jul 05:56:28 06:00:37 36° 98° (E) 06:04:43 437.375
AIST 2 29 Jul 05:57:46 06:01:58 83° 55° (NE) 06:06:08 435.215
O/OREOS (USA 219) 29 Jul 06:02:25 06:06:35 35° 59° (ENE) 06:10:46 437.305
STRAND 1 29 Jul 06:06:47 06:08:45 12° 56° (NE) 06:10:42 437.568
Cubesat XI-IV 29 Jul 06:17:43 06:19:03 11° 87° (E) 06:20:22 437.490
ITAMSAT 1 29 Jul 06:25:53 06:27:29 11° 305° (NW) 06:29:06 435.822/435.867
LilacSat-2 29 Jul 06:30:01 06:30:41 10° 89° (E) 06:31:22 437.200
GOMX 1 29 Jul 06:31:37 06:34:16 14° 89° (E) 06:36:58 467.674
CUTE-I 29 Jul 06:38:44 06:42:22 18° 91° (E) 06:45:58 437.470
NOAA 15 29 Jul 06:51:01 06:55:39 30° 96° (E) 07:00:16 137.62
CUBESAT XI-V 29 Jul 06:59:17 07:02:38 20° 268° (W) 07:05:59 437.345
BRITE-PL 29 Jul 07:16:48 07:21:40 73° 102° (ESE) 07:26:56 437.365/2234.400
RS-15 29 Jul 07:30:16 07:41:41 76° 119° (ESE) 07:53:47 29.354- 29.394
NOAA 18 29 Jul 07:32:14 07:37:40 52° 101° (E) 07:43:01 137.9125
HORYU 2 29 Jul 07:33:24 07:36:59 24° 295° (WNW) 07:40:34 437.375
AO-7 29 Jul 07:33:55 07:39:56 23° 311° (NW) 07:45:56 29.400- 29.500
AIST 2 29 Jul 07:39:01 07:39:47 10° 252° (WSW) 07:40:33 435.215
STRAND 1 29 Jul 07:41:56 07:47:05 81° 74° (ENE) 07:52:16 437.568
O/OREOS (USA 219) 29 Jul 07:42:06 07:45:50 25° 257° (WSW) 07:49:35 437.305
CINEMA 3 29 Jul 07:48:46 07:49:18 10° 85° (E) 07:49:51 145.822/145.860
DOVE 4 29 Jul 07:49:45 07:54:33 36° 96° (E) 07:59:25 437.250
Cubesat XI-IV 29 Jul 07:54:31 07:59:55 84° 104° (ESE) 08:05:15 437.490
SO-50 29 Jul 07:58:59 08:03:30 38° 117° (ESE) 08:07:59 436.795
LilacSat-2 29 Jul 08:01:33 08:05:24 61° 285° (WNW) 08:09:10 437.200
GOMX 1 29 Jul 08:07:42 08:12:48 80° 285° (WNW) 08:18:11 467.674
YUBILEINY 29 Jul 08:09:49 08:10:48 10° 69° (ENE) 08:11:48 435.215
CUTE-I 29 Jul 08:17:34 08:22:51 62° 289° (WNW) 08:28:05 437.470
CANX-2 29 Jul 08:26:05 08:29:05 19° 92° (E) 08:32:05 2200.000
Cosmos 2491 29 Jul 08:28:04 08:36:20 43° 72° (ENE) 08:44:35 435.465 / 435.565
NOAA 15 29 Jul 08:30:40 08:35:28 37° 293° (WNW) 08:40:16 137.62
CUTE 1.7 + AOD 2 29 Jul 08:38:48 08:42:08 22° 94° (E) 08:45:26 437.475
HO-68 29 Jul 08:40:48 08:47:14 33° 96° (E) 08:53:34 435.675
PRISM 29 Jul 08:52:02 08:56:00 55° 72° (ENE) 08:59:59 437.425
BRITE-PL 29 Jul 08:56:49 08:59:42 16° 297° (WNW) 09:02:41 437.365/2234.400
SEEDS 29 Jul 09:13:21 09:17:14 37° 97° (E) 09:21:06 437.485
NOAA 18 29 Jul 09:13:33 09:17:58 25° 299° (WNW) 09:22:21 137.9125
COMPASS 1 29 Jul 09:20:55 09:24:38 31° 96° (E) 09:28:20 437.405
CINEMA 3 29 Jul 09:22:06 09:27:11 84° 104° (ESE) 09:32:09 145.822/145.860
STRAND 1 29 Jul 09:24:31 09:26:52 13° 271° (W) 09:29:13 437.568
DOVE 4 29 Jul 09:27:35 09:32:07 32° 292° (WNW) 09:36:45 437.250
Cubesat XI-IV 29 Jul 09:36:15 09:39:16 15° 303° (WNW) 09:42:16 437.490
SO-50 29 Jul 09:39:36 09:44:02 33° 315° (NW) 09:48:25 436.795
FUNcube-1 29 Jul 09:41:01 09:43:54 17° 90° (E) 09:46:45 145.935
ZACube-1 29 Jul 09:43:02 09:46:14 19° 91° (E) 09:49:22 437.345
ANTELSAT 29 Jul 09:43:17 09:46:41 20° 63° (ENE) 09:50:06 437.575/2403.000
RS-15 29 Jul 09:44:20 09:55:19 43° 326° (NW) 10:06:49 29.354- 29.394
AAUSAT CUBESAT 2 29 Jul 09:46:43 09:50:43 48° 99° (E) 09:54:42 437.432
UWE-3 29 Jul 09:47:07 09:51:15 32° 95° (E) 09:55:15 435.000/436.395/437.385
GOMX 1 29 Jul 09:48:15 09:50:09 12° 301° (WNW) 09:52:05 467.674
YUBILEINY 29 Jul 09:56:59 10:05:30 58° 91° (E) 10:14:06 435.215
CANX-2 29 Jul 10:01:10 10:05:07 39° 289° (WNW) 10:09:01 2200.000
Cosmos 2504 29 Jul 10:13:23 10:20:24 27° 81° (E) 10:27:21 435.465 / 435.565
CUBEBUG 2 29 Jul 10:13:49 10:18:34 87° 100° (E) 10:23:10 437.445
CUTE 1.7 + AOD 2 29 Jul 10:14:15 10:18:02 33° 290° (WNW) 10:21:48 437.475
Oscar 11 29 Jul 10:19:17 10:23:26 44° 98° (E) 10:27:34 145.826/435.025
TIGRISAT 29 Jul 10:22:59 10:27:24 44° 70° (ENE) 10:31:53 435.000
Cosmos 2491 29 Jul 10:25:03 10:33:11 45° 273° (W) 10:41:20 435.465 / 435.565
HO-68 29 Jul 10:28:14 10:35:09 52° 294° (WNW) 10:42:02 435.675
PRISM 29 Jul 10:29:44 10:31:39 13° 269° (W) 10:33:34 437.425
HUMSAT D 29 Jul 10:37:31 10:39:57 15° 90° (E) 10:42:21 437.325/437.525
QB50P2 29 Jul 10:39:09 10:40:57 12° 60° (ENE) 10:42:44 145.880/145.840
UNISAT 6 29 Jul 10:39:56 10:44:33 70° 74° (ENE) 10:49:16 437.425
POLYITAN 1 29 Jul 10:41:41 10:43:34 13° 61° (ENE) 10:45:28 437.675
SEEDS 29 Jul 10:49:37 10:52:43 20° 294° (WNW) 10:55:46 437.485
COMPASS 1 29 Jul 10:56:46 11:00:03 23° 293° (WNW) 11:03:19 437.405
M-CUBED/EXP-1 PRIME 29 Jul 10:58:57 11:03:06 30° 100° (E) 11:07:11 437.505
CINEMA 3 29 Jul 11:01:01 11:03:35 14° 301° (WNW) 11:06:10 145.822/145.860
FUNcube-1 29 Jul 11:16:08 11:20:28 49° 288° (WNW) 11:24:40 145.935
ZACube-1 29 Jul 11:18:28 11:22:45 44° 289° (WNW) 11:26:55 437.345
ANTELSAT 29 Jul 11:18:31 11:23:01 49° 261° (W) 11:27:37 437.575/2403.000
NANOSAT C BR1 29 Jul 11:20:28 11:24:07 28° 68° (ENE) 11:27:47 145.865
AUBIESAT-1 29 Jul 11:22:47 11:27:13 42° 103° (ESE) 11:31:34 437.475
AAUSAT CUBESAT 2 29 Jul 11:23:18 11:25:49 16° 296° (WNW) 11:28:20 437.432
DUCHIFAT 1 29 Jul 11:23:33 11:27:11 29° 68° (ENE) 11:30:52 145.980
UWE-3 29 Jul 11:23:41 11:27:36 28° 293° (WNW) 11:31:24 435.000/436.395/437.385
DELFI C3 29 Jul 11:24:35 11:28:32 76° 284° (WNW) 11:32:27 145.870
BUGSAT 1 29 Jul 11:29:26 11:31:53 15° 63° (ENE) 11:34:21 437.445
JAS-2 29 Jul 11:43:36 11:48:01 23° 63° (ENE) 11:52:09 435.910
QB50P1 29 Jul 11:43:45 11:47:53 52° 72° (ENE) 11:52:03 145.935-145.965
POPSAT HIP 1 29 Jul 11:50:22 11:54:33 61° 74° (ENE) 11:58:48 437.405
ESTCUBE 1 29 Jul 11:52:10 11:55:13 18° 92° (E) 11:58:14 437.505/2401.250
CUBEBUG 2 29 Jul 11:52:36 11:54:26 12° 301° (WNW) 11:56:15 437.445
CUBEBUG 1 29 Jul 11:54:21 11:56:05 12° 89° (E) 11:57:51 437.445
YUBILEINY 29 Jul 11:54:59 12:02:45 34° 292° (WNW) 12:10:38 435.215
Oscar 11 29 Jul 11:56:15 11:59:15 19° 296° (WNW) 12:02:15 145.826/435.025
VELOX 1 29 Jul 11:59:41 12:01:19 12° 89° (E) 12:02:56 145.980
TIGRISAT 29 Jul 12:00:48 12:04:17 21° 268° (W) 12:07:50 435.000
RS-15 29 Jul 12:02:16 12:12:11 28° 360° (N) 12:22:18 29.354- 29.394
Cosmos 2504 29 Jul 12:04:08 12:13:00 72° 280° (W) 12:21:49 435.465 / 435.565
50 SAT 29 Jul 12:09:02 12:10:40 13° 91° (E) 12:12:18 437.505
HUMSAT D 29 Jul 12:11:49 12:15:53 49° 288° (WNW) 12:19:52 437.325/437.525
QB50P2 29 Jul 12:11:55 12:16:09 72° 257° (WSW) 12:20:27 145.880/145.840
POLYITAN 1 29 Jul 12:14:32 12:18:48 71° 258° (WSW) 12:23:06 437.675
HO-68 29 Jul 12:19:05 12:21:15 12° 315° (NW) 12:23:24 435.675
UNISAT 6 29 Jul 12:19:30 12:21:46 13° 271° (W) 12:24:01 437.425
M-CUBED/EXP-1 PRIME 29 Jul 12:33:19 12:37:34 35° 297° (WNW) 12:41:49 437.505
DX 1 29 Jul 12:34:27 12:37:41 20° 93° (E) 12:40:54 434.975-435.025
AISAT 29 Jul 12:42:48 12:46:55 35° 97° (E) 12:51:01 437.250
UKube-1 29 Jul 12:43:28 12:46:38 19° 93° (E) 12:49:46 .
Oscar 19 29 Jul 12:45:37 12:49:26 22° 62° (ENE) 12:53:16 437.125/150
Gurwin Techsat 1B 29 Jul 12:48:48 12:50:29 11° 55° (NE) 12:52:11 435.225
NANOSAT C BR1 29 Jul 12:56:11 12:59:48 27° 265° (W) 13:03:27 145.865
AUBIESAT-1 29 Jul 12:57:38 13:01:25 25° 300° (WNW) 13:05:10 437.475
DUCHIFAT 1 29 Jul 12:59:14 13:02:50 27° 265° (W) 13:06:29 145.980
BUGSAT 1 29 Jul 13:02:50 13:06:50 52° 260° (W) 13:10:55 437.445
SPROUT 29 Jul 13:11:22 13:15:17 32° 97° (E) 13:19:11 437.525
QB50P1 29 Jul 13:21:33 13:23:58 15° 269° (W) 13:26:25 145.935-145.965
JAS-2 29 Jul 13:27:05 13:32:52 53° 259° (W) 13:38:08 435.910
ESTCUBE 1 29 Jul 13:27:57 13:32:17 48° 289° (WNW) 13:36:35 437.505/2401.250
CUBEBUG 1 29 Jul 13:28:27 13:32:50 69° 286° (WNW) 13:37:13 437.445
POPSAT HIP 1 29 Jul 13:28:49 13:30:45 13° 270° (W) 13:32:42 437.405
AO-85 29 Jul 13:33:34 13:38:30 38° 116° (ESE) 13:43:15 145.980
VELOX 1 29 Jul 13:33:49 13:38:16 72° 286° (WNW) 13:42:41 145.980
50 SAT 29 Jul 13:41:06 13:44:32 43° 288° (WNW) 13:47:57 437.505
AIST 1 29 Jul 13:41:13 13:45:23 57° 95° (E) 13:49:34
TISAT 1 29 Jul 13:57:52 14:01:24 25° 95° (E) 14:04:54 437.305
Cosmos 2504 29 Jul 14:02:41 14:08:04 17° 303° (WNW) 14:13:26 435.465 / 435.565
DX 1 29 Jul 14:09:55 14:14:02 41° 290° (WNW) 14:18:08 434.975-435.025
GONETS M04 29 Jul 14:10:07 14:14:55 16° 74° (ENE) 14:19:43
RS-15 29 Jul 14:17:38 14:29:09 42° 34° (NNE) 14:40:38 29.354- 29.394
UKube-1 29 Jul 14:18:46 14:22:51 41° 290° (WNW) 14:26:55 .
AISAT 29 Jul 14:19:36 14:23:13 25° 294° (WNW) 14:26:50 437.250
Oscar 19 29 Jul 14:23:24 14:28:23 53° 260° (W) 14:33:25 437.125/150
Gurwin Techsat 1B 29 Jul 14:24:13 14:29:30 73° 73° (ENE) 14:34:50 435.225
ITAMSAT 1 29 Jul 14:24:51 14:29:12 27° 64° (ENE) 14:33:33 435.822/435.867
SPROUT 29 Jul 14:47:34 14:51:05 25° 293° (WNW) 14:54:36 437.525
AO-7 29 Jul 14:48:49 14:56:13 37° 57° (ENE) 15:03:39 29.400- 29.500
SO-50 29 Jul 14:49:59 14:51:52 12° 28° (NNE) 14:53:42 436.795
Cosmos 2499 29 Jul 14:58:13 15:05:05 26° 81° (E) 15:11:46 435.465 / 435.565
CUSAT 1 29 Jul 14:59:09 15:02:13 67° 78° (ENE) 15:06:04 437.405
SWISSCUBE 29 Jul 15:10:25 15:14:39 31° 96° (E) 15:18:52 437.505
AO-85 29 Jul 15:14:04 15:19:01 37° 313° (NW) 15:23:44 145.980
AIST 1 29 Jul 15:21:17 15:23:24 13° 293° (WNW) 15:25:31
BEESAT 29 Jul 15:31:15 15:35:51 45° 99° (E) 15:40:24 436.000
TISAT 1 29 Jul 15:33:17 15:37:04 31° 291° (WNW) 15:40:49 437.305
DANDE 29 Jul 15:46:48 15:49:25 72° 78° (ENE) 15:52:24 436.750
ITUPSAT 1 29 Jul 15:56:02 16:00:49 78° 103° (ESE) 16:05:35 437.325
GONETS M04 29 Jul 16:01:33 16:10:13 80° 95° (E) 16:18:58
ITAMSAT 1 29 Jul 16:03:31 16:08:27 42° 261° (W) 16:13:26 435.822/435.867
Gurwin Techsat 1B 29 Jul 16:06:59 16:10:01 15° 271° (W) 16:13:04 435.225
SO-50 29 Jul 16:28:54 16:33:28 51° 50° (NE) 16:37:52 436.795
KKS-1 29 Jul 16:32:43 16:36:21 24° 94° (E) 16:39:58 437.445
